TimeEDT,TemperatureF,Dew PointF,Humidity,Sea Level PressureIn,VisibilityMPH,Wind Direction,Wind SpeedMPH,Gust SpeedMPH,PrecipitationIn,Events,Conditions,WindDirDegrees,DateUTC
12:15 AM,35.6,17.6,48,30.00,10.0,NE,5.8,-,N/A,,Clear,40,2013-03-22 04:15:00
12:35 AM,35.6,17.6,48,30.00,10.0,NE,5.8,-,N/A,,Clear,50,2013-03-22 04:35:00
12:55 AM,35.6,17.6,48,30.01,10.0,NE,5.8,-,N/A,,Clear,50,2013-03-22 04:55:00
1:15 AM,35.6,15.8,44,30.01,10.0,ENE,5.8,-,N/A,,Clear,60,2013-03-22 05:15:00
1:35 AM,33.8,17.6,52,30.01,10.0,NE,6.9,-,N/A,,Clear,50,2013-03-22 05:35:00
1:55 AM,33.8,17.6,52,30.01,10.0,NE,4.6,-,N/A,,Clear,50,2013-03-22 05:55:00
2:15 AM,32.0,17.6,55,30.02,10.0,NE,6.9,-,N/A,,Clear,50,2013-03-22 06:15:00
2:55 AM,33.8,17.6,52,30.02,10.0,NE,6.9,-,N/A,,Clear,40,2013-03-22 06:55:00
3:15 AM,33.8,17.6,52,30.02,10.0,NE,6.9,-,N/A,,Clear,50,2013-03-22 07:15:00
3:35 AM,33.8,17.6,52,30.03,10.0,ENE,5.8,-,N/A,,Clear,70,2013-03-22 07:35:00
3:55 AM,32.0,17.6,55,30.05,10.0,East,3.5,-,N/A,,Clear,80,2013-03-22 07:55:00
4:15 AM,32.0,17.6,55,30.06,10.0,East,4.6,-,N/A,,Clear,90,2013-03-22 08:15:00
4:35 AM,32.0,19.4,60,30.06,10.0,East,3.5,-,N/A,,Clear,100,2013-03-22 08:35:00
4:55 AM,32.0,19.4,60,30.06,10.0,East,3.5,-,N/A,,Clear,100,2013-03-22 08:55:00
5:15 AM,32.0,19.4,60,30.06,10.0,ESE,3.5,-,N/A,,Clear,110,2013-03-22 09:15:00
5:35 AM,32.0,19.4,60,30.06,10.0,ESE,3.5,-,N/A,,Clear,110,2013-03-22 09:35:00
5:55 AM,32.0,19.4,60,30.08,10.0,ESE,3.5,-,N/A,,Clear,110,2013-03-22 09:55:00
6:15 AM,32.0,17.6,55,30.08,10.0,Calm,Calm,-,N/A,,Clear,0,2013-03-22 10:15:00
6:35 AM,32.0,19.4,60,30.08,10.0,Calm,Calm,-,N/A,,Clear,0,2013-03-22 10:35:00
6:55 AM,32.0,19.4,60,30.09,10.0,Calm,Calm,-,N/A,,Clear,0,2013-03-22 10:55:00
7:15 AM,32.0,19.4,60,30.09,10.0,Calm,Calm,-,N/A,,Scattered Clouds,0,2013-03-22 11:15:00
7:35 AM,32.0,19.4,60,30.09,10.0,Calm,Calm,-,N/A,,Mostly Cloudy,0,2013-03-22 11:35:00
7:55 AM,32.0,19.4,60,30.11,10.0,Calm,Calm,-,N/A,,Overcast,0,2013-03-22 11:55:00
8:15 AM,33.8,17.6,52,30.11,10.0,SE,3.5,-,N/A,,Overcast,130,2013-03-22 12:15:00
8:35 AM,33.8,17.6,52,30.11,10.0,ESE,3.5,-,N/A,,Overcast,120,2013-03-22 12:35:00
8:55 AM,33.8,17.6,52,30.11,10.0,SE,3.5,-,N/A,,Overcast,140,2013-03-22 12:55:00
9:15 AM,35.6,17.6,48,30.11,10.0,ESE,5.8,-,N/A,,Mostly Cloudy,120,2013-03-22 13:15:00
9:35 AM,35.6,17.6,48,30.10,10.0,ESE,4.6,-,N/A,,Clear,110,2013-03-22 13:35:00
9:55 AM,37.4,17.6,45,30.12,10.0,ESE,6.9,-,N/A,,Scattered Clouds,120,2013-03-22 13:55:00
10:15 AM,37.4,17.6,45,30.11,10.0,ESE,4.6,-,N/A,,Overcast,110,2013-03-22 14:15:00
10:35 AM,37.4,17.6,45,30.12,10.0,Calm,Calm,-,N/A,,Overcast,0,2013-03-22 14:35:00
10:55 AM,37.4,19.4,48,30.12,10.0,East,4.6,-,N/A,,Overcast,90,2013-03-22 14:55:00
11:15 AM,39.2,19.4,45,30.12,10.0,Calm,Calm,-,N/A,,Overcast,0,2013-03-22 15:15:00
11:35 AM,39.2,19.4,45,30.11,10.0,ENE,3.5,-,N/A,,Overcast,60,2013-03-22 15:35:00
11:55 AM,41.0,19.4,42,30.11,10.0,SE,4.6,-,N/A,,Overcast,130,2013-03-22 15:55:00
12:15 PM,42.8,19.4,39,30.11,10.0,Calm,Calm,-,N/A,,Overcast,0,2013-03-22 16:15:00
12:35 PM,44.6,19.4,37,30.10,10.0,Calm,Calm,-,N/A,,Overcast,0,2013-03-22 16:35:00
12:55 PM,44.6,21.2,39,30.08,10.0,East,4.6,-,N/A,,Mostly Cloudy,100,2013-03-22 16:55:00
1:15 PM,46.4,21.2,37,30.09,10.0,West,4.6,-,N/A,,Clear,270,2013-03-22 17:15:00
1:35 PM,48.2,21.2,34,30.09,10.0,WSW,10.4,-,N/A,,Scattered Clouds,240,2013-03-22 17:35:00
1:55 PM,46.4,19.4,34,30.09,10.0,West,5.8,-,N/A,,Mostly Cloudy,270,2013-03-22 17:55:00
2:15 PM,46.4,21.2,37,30.07,10.0,SSW,6.9,-,N/A,,Mostly Cloudy,210,2013-03-22 18:15:00
2:35 PM,48.2,19.4,32,30.07,10.0,WSW,4.6,-,N/A,,Mostly Cloudy,240,2013-03-22 18:35:00
2:55 PM,50.0,21.2,32,30.06,10.0,WSW,11.5,-,N/A,,Mostly Cloudy,240,2013-03-22 18:55:00
3:15 PM,50.0,21.2,32,30.05,10.0,Calm,Calm,-,N/A,,Mostly Cloudy,0,2013-03-22 19:15:00
3:55 PM,50.0,21.2,32,30.05,10.0,WSW,6.9,-,N/A,,Overcast,240,2013-03-22 19:55:00
4:15 PM,51.8,23.0,33,30.05,10.0,West,10.4,-,N/A,,Overcast,260,2013-03-22 20:15:00
4:35 PM,51.8,23.0,33,30.05,10.0,SW,8.1,-,N/A,,Overcast,220,2013-03-22 20:35:00
4:55 PM,51.8,23.0,33,30.03,10.0,SW,5.8,-,N/A,,Overcast,220,2013-03-22 20:55:00
5:15 PM,51.8,23.0,33,30.03,10.0,SSW,6.9,-,N/A,,Overcast,200,2013-03-22 21:15:00
5:35 PM,51.8,23.0,33,30.02,10.0,SW,8.1,-,N/A,,Overcast,230,2013-03-22 21:35:00
5:55 PM,50.0,23.0,35,30.03,10.0,SW,5.8,-,N/A,,Overcast,230,2013-03-22 21:55:00
6:15 PM,50.0,24.8,37,30.03,10.0,SSW,8.1,-,N/A,,Overcast,210,2013-03-22 22:15:00
6:35 PM,50.0,24.8,37,30.03,10.0,SSW,4.6,-,N/A,,Overcast,210,2013-03-22 22:35:00
6:55 PM,50.0,24.8,37,30.04,10.0,SW,6.9,-,N/A,,Overcast,230,2013-03-22 22:55:00
7:15 PM,48.2,26.6,43,30.05,10.0,SW,5.8,-,N/A,,Overcast,230,2013-03-22 23:15:00
7:35 PM,48.2,26.6,43,30.05,10.0,SW,5.8,-,N/A,,Overcast,220,2013-03-22 23:35:00
7:55 PM,46.4,28.4,50,30.05,10.0,SW,5.8,-,N/A,,Overcast,230,2013-03-22 23:55:00
8:15 PM,46.4,28.4,50,30.05,10.0,SW,5.8,-,N/A,,Overcast,230,2013-03-23 00:15:00
8:35 PM,46.4,28.4,50,30.06,10.0,SSW,4.6,-,N/A,,Overcast,210,2013-03-23 00:35:00
8:55 PM,46.4,28.4,50,30.06,10.0,SSW,5.8,-,N/A,,Overcast,210,2013-03-23 00:55:00
9:15 PM,46.4,28.4,50,30.06,10.0,SSW,3.5,-,N/A,,Overcast,210,2013-03-23 01:15:00
9:35 PM,46.4,28.4,50,30.06,10.0,SW,5.8,-,N/A,,Overcast,220,2013-03-23 01:35:00
9:55 PM,46.4,28.4,50,30.07,10.0,SW,6.9,-,N/A,,Overcast,220,2013-03-23 01:55:00
10:15 PM,44.6,30.2,57,30.07,10.0,SW,5.8,-,N/A,,Overcast,220,2013-03-23 02:15:00
10:35 PM,44.6,30.2,57,30.07,10.0,SW,4.6,-,N/A,,Mostly Cloudy,220,2013-03-23 02:35:00
10:55 PM,44.6,30.2,57,30.08,10.0,SW,3.5,-,N/A,,Scattered Clouds,230,2013-03-23 02:55:00
11:15 PM,41.0,30.2,65,30.07,10.0,SW,3.5,-,N/A,,Clear,230,2013-03-23 03:15:00
11:35 PM,39.2,30.2,70,30.07,10.0,Calm,Calm,-,N/A,,Clear,0,2013-03-23 03:35:00
11:55 PM,39.2,30.2,70,30.08,10.0,Calm,Calm,-,N/A,,Clear,0,2013-03-23 03:55:00